Location: Newark
(6.9000°N, 10.0000°E)
Time: 06:04:19
(UTC+00:00)

Hubble Space Telescope - Pass Details

Date: 26 October 2019
Orbit: 536 x 540 km, 28.5° (Epoch: 17 November)

Event Time Altitude Azimuth Distance (km) Brightness Sun altitude
Exits shadow 03:35:10 37° 14° (NNE) 833 1.7 -23.1°
Drops below altitude 10° 03:38:05 10° 46° (NE) 1,771 3.8 -22.4°
Sets 03:40:24 0° 52° (NE) 2,660 4.9 -21.8°
